Location: Unspecified
(49.2170°N, 0.0000°E)
Time: 13:52:47
(UTC+00:00)

Transit 2A - Pass Details

Date: 22 June 2019
Orbit: 596 x 962 km, 66.7° (Epoch: 16 August)

Event Time Altitude Azimuth Distance (km) Brightness Sun altitude
Exits shadow 02:09:30 - 253° (WSW) 3,121 8.7 -12.0°
Reaches altitude 10° 02:10:48 10° 258° (WSW) 2,697 8.4 -11.9°
Maximum altitude 02:16:32 34° 322° (NW) 1,501 7.7 -11.4°
Drops below altitude 10° 02:22:06 10° 27° (NNE) 2,606 10.3 -10.9°
Sets 02:24:48 0° 36° (NE) 3,502 11.7 -10.7°
